Location: Unspecified
(25.6470°N, 106.8560°E)
Time: 06:20:26
(UTC+00:00)

Daily predictions for brighter satellites

Satellite Brightness Start Highest point End
(mag) Time Altitude Azimuth Time Altitude Azimuth Time Altitude Azimuth
FREGAT/IRIS 4.1 12:07:28 10° S 12:10:18 39° W 12:13:09 10° NNW
Meteor 2-20 4.4 12:05:14 10° N 12:11:22 83° E 12:17:32 10° S
ATLAS CENTAUR R/B 3.6 12:12:58 10° NW 12:16:31 47° SW 12:25:57 10° SSE
Helios 1A 4.4 12:15:01 16° ESE 12:16:43 21° ENE 12:19:53 10° NNE
Resurs 01 Rocket 1.6 12:14:32 10° SSE 12:18:55 63° ENE 12:23:19 10° N
Milstar 3 3.1 12:10:53 10° WNW 12:20:44 86° N 12:26:07 17° E
Cosmos 2263 Rocket 2.4 12:16:36 10° N 12:22:00 50° ENE 12:26:10 17° SE
Okean 1-7 4.5 12:26:13 19° E 12:26:13 19° E 12:29:17 10° NE
USA 186 2.0 12:28:20 34° ESE 12:28:51 38° ENE 12:31:37 10° N
Meteor 1-26 Rocket 4.4 12:24:10 10° SSE 12:29:37 52° E 12:35:11 10° NNE
CZ-2D R/B 3.2 12:27:31 14° SSE 12:30:48 73° ENE 12:34:40 10° N
Cosmos 2360 Rocket 3.2 12:30:05 10° SW 12:35:32 50° WNW 12:41:02 10° N
Cosmos 1733 Rocket 3.0 12:31:21 10° N 12:35:48 78° E 12:39:31 14° S
Cosmos 2237 4.2 12:31:04 10° SSW 12:36:47 88° ESE 12:42:32 10° NNE
Sich 1 Rocket 4.4 12:35:32 10° NNE 12:39:34 31° E 12:40:16 30° E
Cosmos 1862 Rocket 4.5 12:35:22 10° SSW 12:39:42 51° W 12:44:04 10° N
H-II Stage 2 3.1 12:37:14 10° W 12:39:59 37° S 12:43:14 23° SE
COSMOS 2428 2.6 12:40:57 10° SSW 12:46:36 80° ESE 12:52:18 10° NNE
OAO 3 Rocket 3.7 12:42:05 10° WNW 12:46:49 52° NNE 12:48:54 30° E
ATLAS 5 CENTAUR R/B 2.7 12:41:57 10° NNW 12:48:07 56° ENE 12:51:11 31° SE
SAR-Lupe-4 3.9 12:48:11 43° ENE 12:48:13 43° ENE 12:51:38 10° N
Sakura Rocket 3.1 12:47:24 10° WNW 12:50:57 52° N 12:52:15 34° ENE
Meteor 1-29 2.8 12:47:53 10° NNE 12:51:20 90° E 12:52:52 31° SSW
Cosmos 1655 Rocket 4.2 12:46:57 10° N 12:53:18 76° W 12:59:34 10° S
Lacrosse 4 Rocket 3.5 12:50:17 10° NW 12:53:58 26° WSW 12:57:42 10° SSW
Blok-L 4.1 12:47:31 10° NNW 12:54:38 69° ENE 12:56:17 43° SE
Helios 1B rocket 2.9 12:52:43 10° N 12:56:46 60° WNW 13:00:47 10° SSW
NOSS 3-1 (C) 3.1 12:52:12 10° SSW 12:57:45 84° ESE 13:03:47 10° NNE
Tiangong 1 1.7 12:55:22 10° WSW 12:58:01 49° NW 12:58:01 49° NW
SWIFT 3.5 12:54:39 10° SW 12:57:34 27° S 12:57:34 27° S
Cosmos 1703 Rocket 3.5 12:58:01 22° S 13:00:52 90° W 13:05:17 10° N
SAR-Lupe-1 4.4 13:06:02 54° NNE 13:06:02 54° NNE 13:08:58 10° N
Atlas Centaur 2 2.9 13:01:15 10° WNW 13:07:26 62° N 13:11:11 30° ENE
Cosmos 968 Rocket 3.4 13:04:30 10° NNW 13:09:44 78° ENE 13:10:54 54° SSE
NOSS 3-1 (A) 3.1 13:10:16 10° SSW 13:15:50 83° ESE 13:21:53 10° NNE
Cosmos 2237 Rocket 3.5 13:18:46 25° NE 13:18:46 25° NE 13:21:23 10° NE
Cosmos 1844 Rocket 3.7 13:17:26 10° N 13:21:35 30° NE 13:21:35 30° NE
Meteor 1-25 Rocket 4.5 13:17:14 10° N 13:22:07 48° ENE 13:22:07 48° ENE
Cosmos 2333 Rocket 2.0 13:24:18 58° S 13:25:25 76° ESE 13:31:11 10° NNE
Envisat 3.2 13:24:20 47° SSW 13:25:38 65° WSW 13:30:41 10° NNW
Cosmos 2278 Rocket 4.4 13:27:24 10° NNE 13:28:34 12° NE 13:28:34 12° NE
Meteor 1-14 Rocket 4.2 13:25:03 10° N 13:30:50 90° E 13:31:38 68° S
Meteor 2-6 Rocket 4.4 13:36:59 62° NE 13:36:59 62° NE 13:42:12 10° NNE
Cosmos 2219 Rocket 2.5 13:31:23 10° SSW 13:36:54 63° WNW 13:42:27 10° N
ERS-1 Rocket 3.5 13:41:57 52° N 13:41:57 52° N 13:45:49 10° N
Skynet4D Del rocket 4.4 13:33:53 10° W 13:42:11 68° SSW 13:43:13 62° SSE
SEDSat Delta rocket 3.6 13:37:51 10° WNW 13:42:23 70° NW 13:42:23 70° NW
H-2A R/B 4.3 13:51:05 13° NNE 13:51:05 13° NNE 13:51:52 10° NNE
CZ-4C R/B 4.2 13:42:31 10° N 13:48:16 24° NE 13:48:16 24° NE
USA 234 4.2 14:01:41 35° NE 14:01:41 35° NE 14:07:19 10° NNW
Palapa 6 Rocket 4.4 13:54:42 10° WSW 14:00:50 61° SW 14:00:50 61° SW
ATLAS 5 CENTAUR R/B 4.4 14:28:10 10° WNW 14:32:31 19° WSW 14:32:47 19° WSW
H-2A R/B 3.6 14:00:14 10° W 14:49:59 80° NNW 14:49:59 80° NNW
Atlas Centaur 2 4.0 14:50:10 10° WNW 14:53:49 35° WNW 14:53:49 35° WNW
Cosmos 2237 Rocket 4.4 15:00:26 19° WNW 15:00:26 19° WNW 15:04:13 10° NNW
ATLAS 2AS CENTAUR R/B 4.3 15:10:55 32° NNE 15:10:55 32° NNE 15:14:55 10° NNE
CZ-4C R/B 4.3 15:29:46 10° NW 15:33:28 32° NW 15:33:28 32° NW
CENTAUR R/B 4.3 18:15:27 10° N 18:22:47 36° ENE 18:25:49 28° E
CZ-2D R/B 4.0 19:00:48 10° NNE 19:03:01 26° NNE 19:03:01 26° NNE
SL-16 R/B 3.3 19:12:43 48° NNE 19:12:43 48° NNE 19:17:26 10° N
Timation 2 Rocket 4.4 19:23:39 60° ENE 19:23:39 60° ENE 19:29:23 10° NNE
CZ-3A R/B 4.0 19:26:14 26° SE 19:26:14 26° SE 19:35:36 10° E
Cosmos 2278 4.2 19:31:11 10° N 19:36:47 55° ENE 19:36:49 55° ENE
Cosmos 1833 Rocket 3.6 19:41:53 40° NNW 19:41:53 40° NNW 19:45:35 10° N
Cosmos 2369 3.9 19:40:46 10° NNW 19:46:28 68° ENE 19:46:35 67° ENE
Yuri Rocket 4.0 19:49:28 52° ENE 19:49:28 52° ENE 19:53:54 10° ENE
Cosmos 2082 Rocket 3.3 19:52:29 34° NNW 19:52:29 34° NNW 19:56:15 10° N
Okean O Rocket 3.7 19:48:27 10° NE 19:51:49 21° E 19:53:00 19° ESE
ADEOS Rocket 3.9 19:50:01 10° N 19:55:18 40° NW 19:55:18 40° NW
Orbus 7S 4.5 19:59:08 52° SE 19:59:08 52° SE 20:07:28 10° E
ARIANE 5 R/B 4.2 19:54:54 10° NNW 19:57:16 23° NNW 19:57:16 23° NNW
Cosmos 1842 Rocket 4.1 20:00:39 10° N 20:04:21 57° NNE 20:04:21 57° NNE
Delta 128 3.8 20:09:11 67° NE 20:09:11 67° NE 20:13:34 10° ENE
ASTRO E2 4.4 20:11:28 25° ESE 20:11:28 25° ESE 20:13:50 10° E
CZ-4B R/B 4.5 20:08:17 10° NE 20:13:06 35° E 20:16:57 15° SSE
CENTAUR R/B 3.4 20:05:52 10° NW 20:23:44 - S 20:12:41 43° W
USA 267 4.4 20:09:16 10° ESE 20:15:18 41° NE 20:21:19 10° NNW
Cosmos 1420 Rocket 3.8 20:10:29 10° NNW 20:15:47 81° WSW 20:16:28 67° S
Resurs 1-4 Rocket 3.9 20:12:27 10° NNW 20:14:25 17° NW 20:14:25 17° NW
In-Cosmos 22 3.9 20:19:26 60° SSW 20:20:28 87° W 20:25:45 10° N
Cosmos 2061 Rocket 4.1 20:15:02 10° N 20:21:14 76° E 20:27:24 10° S
CZ-4B R/B 3.7 20:19:19 10° NNE 20:23:44 57° E 20:25:24 35° SSE
Meteor 2-17 Rocket 4.5 20:21:30 10° N 20:27:34 78° E 20:33:38 10° S
Cosmos 1674 3.6 20:28:07 31° SE 20:29:25 45° E 20:33:05 10° NNE
SL-24 R/B 4.3 20:24:16 10° N 20:29:28 71° WNW 20:30:12 59° SW
Meteor 1-16 Rocket 4.2 20:25:39 10° NNW 20:30:46 50° W 20:30:49 50° W
Cosmos 1459 Rocket 3.9 20:25:47 10° N 20:32:01 78° W 20:37:33 14° S
Delta 2 Rocket 3.8 20:32:39 38° W 20:35:05 83° N 20:41:13 10° E
PAYLOAD B 4.3 20:32:03 10° NNE 20:37:36 76° ESE 20:41:36 19° S
Meteor 2-1 Rocket 4.2 20:40:05 10° N 20:45:49 74° W 20:51:39 10° S
Cosmos 1802 Rocket 4.0 20:40:33 10° N 20:46:53 69° W 20:53:09 10° S
Cosmos 1076 Rocket 3.3 20:45:50 40° SSW 20:47:14 71° W 20:51:28 10° N
ISS -1.5 20:47:10 15° SSE 20:48:32 18° SE 20:50:52 10° E
Delta 168 2.4 20:49:58 51° S 20:50:08 52° SSE 20:53:35 10° E
Cosmos 1725 Rocket 4.3 20:45:44 10° N 20:52:00 71° E 20:58:17 10° SSE
ATLAS 3B CENTAUR R/B 3.1 20:53:21 12° SSE 20:53:21 12° SSE 20:54:05 10° SE
Aurora 2 Rocket 2.6 20:52:31 35° WSW 20:54:23 62° S 20:58:14 10° E
Landsat 4 3.7 20:53:29 39° SSW 20:54:26 52° W 20:58:05 10° NNW
SL-16 R/B 4.4 20:57:48 11° WNW 20:57:48 11° WNW 20:58:27 10° WNW
PSLV R/B 4.5 20:52:24 10° N 20:56:15 38° WNW 20:57:04 34° WSW
Cosmos 972 Rocket 4.2 20:53:07 10° NNW 20:58:50 57° W 21:03:57 10° S
Tiangong 1 3.3 21:02:40 12° SSE 21:02:40 12° SSE 21:03:01 10° SSE
Cosmos 1356 Rocket 4.4 20:57:24 10° SSE 21:01:19 46° E 21:05:11 10° NNE
Okean 3 Rocket 4.4 21:00:51 28° W 21:01:23 29° W 21:05:13 10° NNW
SL-08 R/B 4.3 20:55:37 10° N 21:01:41 76° W 21:07:44 10° S
Cosmos 1697 Rocket 2.8 20:56:58 10° NNW 21:02:21 50° WSW 21:07:44 10° S
Cosmos 2251 Rocket 4.0 21:00:31 27° WSW 21:02:45 40° WNW 21:07:44 10° N
Cosmos 2360 4.5 21:00:14 10° NNW 21:05:57 73° ENE 21:11:37 10° SSE
OAO 2 Rocket 3.4 21:03:42 26° WSW 21:06:47 84° NNW 21:12:05 10° ENE
IRS-1C Rocket 4.2 21:01:46 10° N 21:06:56 57° WNW 21:11:18 14° SSW
Cosmos 1766 Rocket 3.6 21:04:05 17° SSW 21:07:27 61° W 21:11:53 10° N
ADEOS II 2.5 21:07:22 10° N 21:12:18 42° WNW 21:16:09 16° SW
Cosmos 1184 Rocket 3.0 21:11:21 24° SSW 21:13:05 48° W 21:16:20 10° N
Okean-O 3.5 21:09:10 10° NNE 21:13:29 50° E 21:17:45 10° S
SL-24 R/B 4.3 21:11:52 10° N 21:16:01 50° WNW 21:19:41 13° SSW
Cosmos 1340 Rocket 3.4 21:14:30 21° SW 21:16:40 37° W 21:20:21 10° NNW
Delta 198 3.1 21:14:53 25° WSW 21:16:47 59° S 21:20:29 10° E
Cosmos 1500 Rocket 4.4 21:17:00 10° S 21:21:10 52° E 21:25:21 10° NNE
Cosmos 1408 Rocket 4.2 21:21:32 13° SSW 21:25:09 36° W 21:29:17 10° NNW
Okean O Rocket 3.0 21:24:39 10° NNW 21:28:00 22° WNW 21:30:28 14° WSW
Delta 2 Rocket 3.1 21:25:25 13° WNW 21:28:09 44° SSW 21:31:21 10° SE
Cosmos 1908 3.5 21:25:50 10° NNW 21:29:32 45° W 21:33:15 10° SSW
Cosmos 2322 Rocket 3.3 21:26:31 10° N 21:32:01 49° ENE 21:37:29 10° SE
Cosmos 1743 Rocket 3.5 21:28:29 10° S 21:32:54 72° W 21:37:21 10° N
Cosmos 1328 3.7 21:30:13 10° S 21:34:09 77° W 21:38:05 10° N
Meteor 1-31 Rocket 2.9 21:33:29 10° N 21:37:20 59° WNW 21:41:13 10° SSW
Cosmos 2221 3.8 21:35:30 10° NW 21:38:35 20° W 21:41:39 10° SW
Cosmos 1980 Rocket 2.6 21:33:22 10° NW 21:38:38 41° WSW 21:43:51 10° S
GPS 2-12 Rocket1 3.8 21:34:54 12° WSW 21:39:01 42° S 21:43:29 10° ESE
Cosmos 1515 Rocket 4.4 21:38:26 10° N 21:42:50 56° E 21:47:11 10° SSE
Yuri Rocket 4.1 21:40:30 10° W 21:45:44 71° N 21:53:04 10° E
Tiangong 2 2.4 21:43:36 10° SSW 21:46:29 34° SE 21:49:23 10° ENE
Cosmos 1833 4.2 21:41:34 10° SSW 21:47:08 75° WNW 21:52:43 10° NNE
SL-14 R/B 3.4 21:44:57 10° SSW 21:48:41 50° W 21:52:29 10° N
ASTRO E2 2.9 21:46:42 10° W 21:50:42 68° NNW 21:54:43 10° ENE
Cosmos 2228 Rocket 3.0 21:46:39 10° N 21:51:02 80° W 21:55:26 10° S
Cosmos 1300 2.7 21:51:09 10° N 21:54:59 88° W 21:58:48 10° S
Meteor 1-11 4.2 21:52:02 10° S 21:57:36 81° W 22:03:12 10° N
USA 267 3.7 21:52:09 10° SSE 21:58:09 39° SW 22:04:12 10° WNW
CZ-3 R/B 2.1 21:58:25 10° WSW 22:15:44 86° NNW 22:20:16 10° ENE
